| time (UTC) | temp F | wind direction | speed MPH | gust MPH | rain 1hr in | rain 24hr in | rain mn in | humidity % | barometer mb |
| 20260504050133 | 44 | 0 | 0.0 | 0.0 | 0.00 | 0.00 | 0.00 | 77 | 1015.9 |
| 20260504044559 | 45 | 0 | 0.0 | 0.0 | 0.00 | 0.00 | 0.00 | 75 | 1015.8 |
| 20260504043101 | 45 | 0 | 0.0 | 0.0 | 0.00 | 0.00 | 0.00 | 74 | 1015.6 |
| 20260504041558 | 45 | 0 | 0.0 | 0.0 | 0.00 | 0.00 | 0.00 | 74 | 1015.6 |
| 20260504040105 | 44 | 0 | 0.0 | 0.0 | 0.00 | 0.00 | 0.00 | 74 | 1015.5 |
| 20260504034558 | 44 | 0 | 0.0 | 1.0 | 0.00 | 0.00 | 0.00 | 73 | 1015.5 |
| 20260504033058 | 44 | 0 | 0.0 | 0.0 | 0.00 | 0.00 | 0.00 | 73 | 1015.4 |
| 20260504031623 | 44 | 0 | 0.0 | 0.0 | 0.00 | 0.00 | 0.00 | 72 | 1015.4 |
| 20260504030058 | 44 | 0 | 0.0 | 0.0 | 0.00 | 0.00 | 0.00 | 69 | 1015.3 |
| 20260504024556 | 45 | 0 | 0.0 | 0.0 | 0.00 | 0.00 | 0.00 | 67 | 1015.3 |
| 20260504023100 | 45 | 0 | 0.0 | 0.0 | 0.00 | 0.00 | 0.00 | 64 | 1015.2 |
| 20260504021609 | 46 | 0 | 0.0 | 0.0 | 0.00 | 0.00 | 0.00 | 64 | 1015.2 |
| 20260504020106 | 46 | 0 | 0.0 | 0.0 | 0.00 | 0.00 | 0.00 | 62 | 1015.2 |
| 20260504014600 | 46 | 0 | 0.0 | 0.0 | 0.00 | 0.00 | 0.00 | 61 | 1015.2 |
| 20260504013110 | 47 | 0 | 0.0 | 0.0 | 0.00 | 0.00 | 0.00 | 61 | 1015.0 |
| 20260504011600 | 47 | 0 | 0.0 | 0.0 | 0.00 | 0.00 | 0.00 | 59 | 1015.0 |
| 20260504010115 | 48 | 0 | 0.0 | 0.0 | 0.00 | 0.00 | 0.00 | 55 | 1014.6 |
| 20260504004558 | 49 | 0 | 0.0 | 0.0 | 0.00 | 0.00 | 0.00 | 53 | 1014.4 |
| 20260504003059 | 51 | 0 | 0.0 | 0.0 | 0.00 | 0.00 | 0.00 | 49 | 1014.2 |
| 20260504001611 | 52 | 0 | 0.0 | 0.0 | 0.00 | 0.00 | 0.00 | 44 | 1014.1 |
| 20260504000105 | 54 | 0 | 0.0 | 1.0 | 0.00 | 0.00 | 0.00 | 41 | 1014.0 |
| 20260503234600 | 56 | 0 | 0.0 | 3.0 | 0.00 | 0.00 | 0.00 | 40 | 1013.9 |
| 20260503233057 | 57 | 307 | 0.0 | 6.0 | 0.00 | 0.00 | 0.00 | 36 | 1013.7 |
| 20260503231556 | 58 | 281 | 1.0 | 7.0 | 0.00 | 0.00 | 0.00 | 35 | 1013.5 |
| 20260503224557 | 59 | 346 | 4.0 | 12.0 | 0.00 | 0.00 | 0.00 | 33 | 1013.3 |
| 20260503223057 | 59 | 321 | 6.0 | 12.0 | 0.00 | 0.00 | 0.00 | 32 | 1013.2 |
| 20260503221602 | 60 | 297 | 3.0 | 10.0 | 0.00 | 0.00 | 0.00 | 32 | 1013.3 |
| 20260503220105 | 59 | 270 | 4.0 | 14.0 | 0.00 | 0.00 | 0.00 | 33 | 1013.4 |
| 20260503214600 | 60 | 285 | 5.0 | 14.0 | 0.00 | 0.00 | 0.00 | 32 | 1013.4 |
| 20260503213134 | 60 | 283 | 7.0 | 15.0 | 0.00 | 0.00 | 0.00 | 33 | 1012.9 |
| 20260503211622 | 60 | 222 | 4.0 | 16.0 | 0.00 | 0.00 | 0.00 | 33 | 1012.9 |
| 20260503210057 | 59 | 293 | 4.0 | 13.0 | 0.00 | 0.00 | 0.00 | 33 | 1012.8 |
| 20260503204621 | 59 | 274 | 6.0 | 14.0 | 0.00 | 0.00 | 0.00 | 32 | 1013.0 |
| 20260503203115 | 59 | 308 | 4.0 | 14.0 | 0.00 | 0.00 | 0.00 | 32 | 1012.9 |
| 20260503201603 | 58 | 294 | 6.0 | 18.0 | 0.00 | 0.00 | 0.00 | 32 | 1012.9 |
| 20260503200059 | 58 | 310 | 5.0 | 16.0 | 0.00 | 0.00 | 0.00 | 34 | 1012.9 |
| 20260503194557 | 59 | 299 | 6.0 | 17.0 | 0.00 | 0.00 | 0.00 | 33 | 1012.8 |
| 20260503193059 | 58 | 304 | 3.0 | 15.0 | 0.00 | 0.00 | 0.00 | 35 | 1012.9 |
| 20260503191605 | 58 | 269 | 7.0 | 17.0 | 0.00 | 0.00 | 0.00 | 36 | 1013.2 |
| 20260503190056 | 58 | 40 | 8.0 | 15.0 | 0.00 | 0.00 | 0.00 | 36 | 1013.4 |
| 20260503184628 | 57 | 303 | 5.0 | 11.0 | 0.00 | 0.00 | 0.00 | 38 | 1013.3 |
| 20260503183105 | 57 | 306 | 5.0 | 16.0 | 0.00 | 0.00 | 0.00 | 37 | 1013.6 |
| 20260503181557 | 57 | 8 | 5.0 | 15.0 | 0.00 | 0.00 | 0.00 | 36 | 1013.5 |
| 20260503180057 | 56 | 229 | 6.0 | 18.0 | 0.00 | 0.00 | 0.00 | 38 | 1013.6 |
| 20260503174625 | 56 | 329 | 4.0 | 18.0 | 0.00 | 0.00 | 0.00 | 41 | 1013.4 |
| 20260503173131 | 55 | 321 | 5.0 | 12.0 | 0.00 | 0.00 | 0.00 | 39 | 1013.7 |
| 20260503171605 | 55 | 325 | 4.0 | 11.0 | 0.00 | 0.00 | 0.00 | 39 | 1013.7 |
| 20260503170107 | 55 | 221 | 5.0 | 14.0 | 0.00 | 0.00 | 0.00 | 41 | 1013.7 |
| 20260503150107 | 52 | 305 | 7.0 | 16.0 | 0.00 | 0.00 | 0.00 | 45 | 1014.5 |
| 20260503130104 | 48 | 309 | 3.0 | 7.0 | 0.00 | 0.00 | 0.00 | 58 | 1013.9 |
| 20260503100107 | 43 | 294 | 2.0 | 6.0 | 0.00 | 0.00 | 0.00 | 73 | 1011.9 |
| 20260503090107 | 43 | 269 | 1.0 | 5.0 | 0.00 | 0.00 | 0.00 | 71 | 1011.0 |
| 20260503081601 | 44 | 281 | 2.0 | 6.0 | 0.00 | 0.00 | 0.00 | 69 | 1011.0 |